Regional Weather Roundup
Issued by NWS Burlington, VT

Home | Current Version | Previous Version | Graphics & Text | Print | Product List | Glossary On
Versions: 1 2 3 4 5 6 7 8 9 10 11 12 13 14 15 16 17 18 19 20 21 22 23 24 25 26 27 28 29 30 31 32 33 34 35 36 37 38 39 40 41 42 43 44 45 46 47 48 49 50
163
ASUS41 KBTV 302110
RWRBTV
VERMONT REGIONAL WEATHER ROUNDUP
NATIONAL WEATHER SERVICE BURLINGTON VT
500 PM EDT THU JUN 30 2016

NOTE: "FAIR" INDICATES FEW OR NO CLOUDS BELOW 12,000 FEET WITH NO
SIGNIFICANT WEATHER AND/OR OBSTRUCTIONS TO VISIBILITY.

* THESE REPORTS ARE NOT UNDER NWS QUALITY CONTROL AND/OR DO NOT
  REPORT WEATHER SUCH AS PRECIPITATION AND FOG.

VTZ001>019-302200-
_____VERMONT_____


CITY           SKY/WX    TMP DP  RH WIND       PRES   REMARKS
BURLINGTON     FAIR      84  48  28 NW7       29.94S
MONTPELIER     FAIR      78  51  38 NW6       30.02S
MORRISVILLE    FAIR      80  52  37 CALM      29.98S
ST. JOHNSBURY*   N/A     79  50  36 MISG      29.94S
LYNDONVILLE*   FAIR      77  51  39 W9        29.99S
MIDDLEBURY*    FAIR      81  49  32 E3        29.95S
RUTLAND*       PTSUNNY   79  53  40 CALM      29.98S
SPRINGFIELD    FAIR      81  48  31 VRB5      29.97S
HIGHGATE*      FAIR      81  51  35 SW3       29.94S
NEWPORT*       PTSUNNY   76  52  42 W8        29.98R
BENNINGTON     FAIR      79  49  34 VRB3      30.00S
SUTTON*          N/A     75 N/A N/A MISG        N/A

_____LAKE CHAMPLAIN_____


CITY           SKY/WX    TMP DP  RH WIND       PRES   REMARKS
BURTON ISLAND*   N/A     79  57  47 E5          N/A
COLCHESTER RF*   N/A     75  59  57 SW7         N/A
DIAMOND ISL*     N/A     79  48  34 N5          N/A

$$

NYZ007-026>031-035-052-083-087-302200-
_____NORTHERN NEW YORK_____


CITY           SKY/WX    TMP DP  RH WIND       PRES   REMARKS
PLATTSBURGH    SUNNY     80  55  42 SE7       29.93S
SARANAC LAKE   PTSUNNY   75  46  35 VRB5      29.99F
MASSENA        SUNNY     82  50  32 SW10      29.94F
OGDENSBURG*    SUNNY     82  48  30 SW9       29.96S
WATERTOWN      SUNNY     75  48  38 W12       30.00S
FT DRUM        SUNNY     76  48  37 W8        29.99F
ALBANY         MOSUNNY   83  50  31 W9G17     29.97F
GLENS FALLS    MOSUNNY   84  51  31 VRB5      29.95S

$$
NHZ002-005-011-302200-
_____NEW HAMPSHIRE_____


CITY           SKY/WX    TMP DP  RH WIND       PRES   REMARKS
LEBANON        MOSUNNY   83  51  33 SW6       29.96S
KEENE          SUNNY     82  48  30 NW7       29.98R
MT WASHINGTON  PTSUNNY   52  43  71 W26G35      N/A
PLYMOUTH       PTSUNNY   80  51  35 CALM      29.96R
WHITEFIELD     MOSUNNY   79  49  34 W7        29.97S

$$

_____REGIONAL QUEBEC LOCATIONS_____


CITY           SKY/WX    TMP DP  RH WIND       PRES   REMARKS
MONTREAL       MOSUNNY   82  55  39 SW13      29.91S
QUEBEC CITY    MOSUNNY   79  54  41 W13G20    29.88R
SHERBROOKE     MOSUNNY   77  54  44 W7        29.94S

_____REGIONAL ONTARIO LOCATIONS_____


CITY           SKY/WX    TMP DP  RH WIND       PRES   REMARKS
OTTAWA         MOSUNNY   84  46  26 SW15G23   29.91F

______KEY______
VSB  - VISIBILITY IN MILES
WCI  - WIND CHILL INDEX
HX   - HEAT INDEX
$$
NNNN




USA.gov is the U.S. government's official web portal to all federal, state and local government web resources and services.